Location: Campolattaro
(41.2833°N, 14.7333°E)
Time: 01:05:40
(UTC+00:00)

Cosmos 1238 Rocket - Pass Details

Date: 19 May 2025
Orbit: 356 x 778 km, 82.9° (Epoch: 15 June)

Event Time Altitude Azimuth Distance (km) Brightness Sun altitude
Exits shadow 21:22:21 34° 281° (W) 822 3.9 -24.9°
Drops below altitude 10° 21:25:31 10° 347° (NNW) 1,587 6.2 -25.1°
Sets 21:27:35 0° 357° (N) 2,399 7.2 -25.3°
